Temp
18 17 17 17 17 17 18 18 18 18 19 19 19 19 19 19 19 19 19 20 20 19 20 20 19 19 19 19 20 20 20 20 20 20 20 20 20 20 19 19 19 19
18 17 17 17 17 17 17 17 18 18 18 19 19 19 19 19 18 19 19 19 19 19 20 20 20 19 19 19 19 19 20 20 20 20 20 20 20 20 20 19 19 20
17 17 17 17 17 17 17 17 17 17 18 18 18 18 19 19 18 18 19 19 19 19 19 20 20 20 19 19 19 19 19 20 20 20 19 19 19 19 20 20 20 20
17 17 17 17 17 17 17 17 17 17 17 18 18 18 18 18 18 18 18 18 19 19 19 19 20 20 20 19 19 19 19 19 19 19 19 19 19 19 19 20 20 20
18 18 17 17 17 17 17 17 17 17 17 18 18 18 18 18 18 18 18 18 18 19 19 19 19 20 20 20 19 19 19 19 19 19 19 19 19 19 19 19 19 20
18 18 18 18 17 17 17 17 17 17 17 17 18 18 18 18 18 18 18 18 18 18 18 19 19 20 20 20 20 19 19 19 19 19 19 19 19 19 19 19 19 19
17 18 18 18 18 17 17 17 17 17 17 17 17 17 17 17 17 18 18 18 18 18 18 19 19 19 19 19 20 20 19 19 19 19 19 19 19 19 19 19 19 19
17 17 17 18 18 17 17 17 17 17 17 17 17 17 17 17 17 18 18 18 18 17 17 18 19 19 19 19 19 19 20 20 20 20 20 20 20 20 19 19 19 19
17 17 17 17 18 18 17 17 16 17 17 17 17 17 17 17 18 18 18 18 18 17 17 18 18 18 18 18 19 19 19 20 20 20 20 20 20 20 20 20 19 19
16 16 17 17 17 17 17 17 16 16 17 17 17 17 17 17 17 17 18 18 17 17 17 18 18 18 18 18 18 18 19 19 20 20 20 20 20 20 20 20 20 20
16 16 16 16 17 17 17 17 17 16 16 17 17 17 17 17 17 17 17 17 17 18 18 18 18 18 18 18 18 18 18 19 19 19 20 20 20 20 20 20 20 20
16 16 16 16 16 17 17 17 17 16 16 16 17 17 17 17 17 17 17 17 18 18 18 18 18 18 18 18 18 18 18 18 18 19 19 19 19 20 20 20 20 20
16 16 16 16 16 16 17 17 16 16 16 16 17 17 17 17 17 17 17 17 18 18 18 18 18 18 18 18 19 18 18 18 18 18 19 19 19 19 19 20 20 20
16 16 16 16 16 16 17 17 16 16 16 17 17 18 18 18 18 18 17 17 18 18 18 18 18 18 18 18 19 19 18 18 18 18 18 19 19 19 19 19 20 20
15 15 15 16 16 16 16 16 16 16 16 17 17 17 17 17 18 18 18 18 18 18 18 18 18 18 19 19 19 19 18 18 18 18 18 18 19 19 19 19 19 19
15 15 15 15 16 16 16 16 16 16 16 17 17 17 17 17 18 18 18 18 18 18 18 19 19 19 19 19 19 19 19 18 18 18 18 18 18 18 19 19 19 19
15 15 15 15 15 16 16 16 16 16 16 16 17 16 17 17 17 18 18 18 18 19 19 19 19 19 19 19 19 19 19 18 18 18 18 18 18 18 19 19 19 19
15 15 15 15 15 15 16 16 16 16 16 16 16 16 16 16 17 17 18 18 18 18 19 19 19 20 20 20 19 19 19 19 19 19 18 18 18 18 19 18 18 19
14 15 15 15 15 15 16 16 16 16 16 16 16 16 16 16 16 17 17 17 18 18 18 18 19 19 19 19 19 19 19 18 19 19 18 18 18 18 19 18 18 19
14 15 15 15 15 15 16 16 16 16 16 16 16 16 16 16 16 16 17 17 17 17 17 18 18 18 18 19 19 19 19 18 18 18 18 18 18 18 18 19 19 19
14 15 15 15 15 15 15 16 16 16 16 16 16 16 16 16 16 16 16 16 17 17 17 17 18 18 18 18 18 18 18 18 18 18 18 18 18 18 18 18 18 19
14 14 15 15 15 15 15 16 16 16 16 16 16 16 16 16 16 16 16 16 16 16 17 17 18 18 18 18 18 18 18 18 18 18 18 18 18 18 18 18 18 18
14 14 14 15 15 15 15 16 16 16 16 16 16 16 16 16 16 16 16 16 16 16 16 17 18 18 18 18 18 18 18 17 17 17 17 17 18 18 18 18 18 18
14 14 14 14 15 15 15 15 16 16 16 16 16 16 16 16 16 15 15 16 16 16 16 17 17 18 17 17 17 17 17 17 17 17 16 17 17 18 18 18 18 18
14 14 14 14 14 14 15 15 15 16 16 16 16 16 16 16 16 15 15 15 16 16 16 16 17 17 17 17 17 17 17 17 17 17 17 17 17 17 18 18 18 18
14 14 14 14 14 14 14 15 15 15 15 15 16 16 16 16 15 15 15 15 15 15 16 16 16 17 17 17 17 17 17 17 17 17 17 17 17 17 17 18 18 18
Height
1519 1519 1519 1518 1518 1518 1518 1518 1518 1518 1518 1518 1519 1521 1521 1522 1524 1526 1527 1529 1530 1532 1534 1536 1537 1538 1540 1541 1541 1542 1543 1545 1546 1548 1550 1550 1552 1552 1553 1554 1555 1556
1518 1518 1517 1516 1516 1516 1515 1515 1515 1515 1515 1515 1516 1517 1518 1519 1521 1522 1524 1526 1527 1529 1531 1533 1534 1535 1536 1538 1539 1540 1541 1542 1543 1545 1546 1547 1549 1550 1550 1551 1552 1553
1517 1516 1515 1515 1514 1514 1513 1513 1513 1512 1512 1513 1513 1514 1515 1517 1518 1519 1520 1522 1524 1526 1528 1529 1531 1532 1533 1534 1536 1537 1538 1539 1541 1542 1544 1545 1546 1547 1547 1549 1549 1550
1515 1515 1514 1513 1512 1512 1511 1511 1510 1510 1509 1509 1510 1511 1512 1514 1515 1516 1517 1519 1521 1523 1524 1526 1528 1529 1530 1531 1532 1534 1535 1537 1538 1540 1541 1542 1543 1544 1545 1546 1546 1547
1515 1513 1512 1511 1510 1509 1509 1508 1508 1507 1506 1505 1506 1508 1509 1510 1512 1513 1514 1516 1517 1519 1521 1523 1525 1526 1527 1528 1529 1531 1532 1534 1535 1537 1538 1539 1540 1541 1542 1543 1544 1544
1515 1513 1511 1510 1508 1508 1507 1506 1505 1505 1503 1502 1502 1504 1506 1507 1509 1510 1512 1514 1514 1516 1518 1520 1522 1523 1525 1526 1526 1528 1529 1530 1532 1534 1535 1536 1537 1538 1539 1540 1541 1541
1514 1513 1510 1509 1507 1506 1505 1504 1503 1502 1502 1501 1501 1502 1503 1504 1505 1507 1510 1513 1513 1514 1515 1517 1518 1520 1522 1523 1524 1525 1526 1528 1529 1530 1531 1533 1534 1535 1536 1537 1538 1538
1513 1511 1509 1507 1505 1504 1502 1501 1501 1500 1500 1500 1500 1500 1501 1501 1503 1505 1507 1510 1512 1512 1512 1513 1515 1517 1519 1520 1521 1523 1524 1525 1526 1527 1528 1530 1531 1532 1533 1534 1534 1535
1511 1509 1507 1505 1503 1501 1500 1499 1499 1498 1498 1498 1498 1498 1498 1499 1501 1502 1504 1506 1508 1509 1509 1510 1512 1514 1515 1517 1518 1519 1521 1522 1524 1525 1525 1526 1527 1529 1530 1531 1531 1532
1509 1507 1505 1503 1501 1499 1498 1496 1496 1496 1496 1496 1496 1495 1496 1498 1499 1500 1501 1502 1504 1505 1506 1506 1509 1510 1512 1513 1514 1516 1517 1519 1520 1521 1522 1523 1524 1525 1527 1528 1529 1529
1507 1505 1503 1501 1500 1498 1496 1494 1493 1493 1493 1494 1494 1494 1495 1496 1497 1498 1499 1499 1500 1502 1502 1504 1505 1507 1508 1509 1510 1512 1514 1515 1517 1518 1519 1520 1521 1522 1523 1525 1526 1526
1506 1504 1502 1500 1498 1496 1494 1493 1492 1491 1491 1491 1492 1493 1493 1494 1495 1496 1497 1497 1497 1498 1499 1500 1502 1503 1504 1505 1507 1508 1510 1511 1513 1514 1515 1516 1518 1519 1520 1521 1522 1523
1504 1502 1500 1498 1496 1495 1493 1492 1490 1490 1489 1490 1490 1490 1490 1491 1493 1493 1494 1494 1494 1495 1496 1497 1498 1499 1500 1501 1503 1504 1506 1507 1509 1510 1512 1513 1514 1515 1517 1518 1519 1519
1502 1501 1499 1497 1495 1493 1492 1490 1489 1488 1488 1487 1487 1487 1487 1488 1489 1490 1490 1491 1491 1492 1493 1494 1495 1496 1496 1497 1499 1500 1502 1503 1505 1506 1508 1509 1510 1512 1513 1514 1515 1516
1501 1499 1497 1496 1494 1492 1491 1489 1488 1487 1486 1485 1484 1484 1484 1485 1485 1486 1486 1487 1487 1488 1489 1490 1491 1492 1493 1494 1495 1497 1498 1500 1501 1503 1504 1505 1506 1508 1509 1510 1511 1512
1498 1497 1495 1494 1492 1491 1489 1488 1487 1485 1484 1483 1482 1482 1482 1481 1482 1482 1482 1483 1484 1485 1486 1486 1487 1488 1489 1490 1491 1493 1494 1496 1497 1499 1500 1501 1502 1503 1505 1506 1507 1508
1496 1494 1493 1492 1490 1489 1488 1486 1485 1484 1483 1482 1481 1480 1480 1479 1479 1479 1479 1480 1480 1481 1482 1483 1484 1485 1486 1487 1488 1490 1491 1492 1493 1495 1496 1498 1499 1500 1501 1502 1503 1505
1494 1492 1491 1489 1488 1487 1486 1485 1484 1482 1481 1480 1479 1478 1478 1477 1477 1476 1476 1477 1477 1478 1479 1479 1480 1481 1483 1484 1485 1486 1488 1488 1490 1491 1492 1494 1495 1496 1497 1498 1500 1501
1492 1490 1489 1487 1486 1485 1484 1483 1482 1481 1480 1478 1477 1477 1476 1475 1475 1474 1474 1474 1475 1475 1476 1476 1477 1478 1479 1480 1481 1482 1484 1485 1486 1487 1488 1490 1491 1492 1494 1495 1496 1497
1489 1488 1487 1486 1484 1483 1482 1481 1480 1479 1478 1477 1475 1474 1474 1473 1472 1472 1472 1472 1472 1472 1473 1473 1473 1474 1475 1476 1477 1478 1480 1481 1482 1482 1484 1485 1487 1488 1490 1491 1492 1493
1487 1486 1485 1483 1482 1481 1480 1479 1478 1477 1476 1475 1473 1472 1471 1471 1470 1470 1470 1470 1470 1470 1470 1470 1470 1471 1472 1472 1473 1474 1476 1477 1477 1478 1479 1480 1482 1484 1485 1486 1488 1489
1485 1484 1482 1481 1480 1479 1478 1477 1476 1475 1474 1472 1471 1470 1469 1468 1468 1468 1468 1467 1467 1467 1467 1467 1468 1469 1469 1469 1470 1471 1472 1473 1473 1474 1475 1476 1477 1479 1480 1482 1483 1484
1483 1481 1480 1479 1477 1476 1475 1474 1473 1472 1471 1470 1469 1468 1467 1466 1465 1465 1465 1465 1465 1465 1464 1464 1465 1466 1466 1467 1467 1468 1469 1469 1470 1470 1471 1472 1473 1475 1476 1477 1479 1480
1481 1479 1478 1476 1475 1474 1473 1472 1471 1470 1469 1468 1467 1465 1464 1464 1463 1463 1463 1463 1463 1463 1462 1462 1462 1463 1464 1464 1465 1465 1466 1466 1466 1467 1467 1468 1469 1471 1472 1474 1475 1476
1479 1477 1476 1474 1473 1472 1471 1470 1469 1468 1467 1466 1465 1463 1462 1461 1461 1460 1461 1461 1461 1460 1460 1460 1460 1461 1461 1461 1462 1462 1463 1463 1463 1464 1464 1465 1466 1467 1468 1469 1470 1471
1477 1475 1474 1472 1471 1469 1468 1467 1466 1466 1465 1464 1462 1461 1460 1459 1458 1458 1458 1458 1458 1458 1458 1458 1458 1458 1458 1459 1459 1460 1460 1460 1460 1461 1461 1462 1463 1464 1464 1465 1466 1466
Wind_Speed
13 14 15 17 18 19 20 21 24 26 28 29 29 29 29 27 25 26 28 28 26 25 24 23 22 19 18 17 18 20 23 25 26 27 26 25 24 24 24 22 21 20
13 12 12 14 15 16 17 19 21 24 27 28 29 29 29 27 25 25 28 28 26 25 24 24 23 21 20 18 17 18 20 23 25 26 27 26 25 25 25 24 23 22
15 15 14 14 15 15 15 16 19 22 24 27 28 29 29 29 27 26 28 29 28 26 24 24 24 22 21 20 19 19 19 20 22 23 24 24 24 25 25 25 25 23
18 17 16 17 17 16 16 17 18 20 23 26 27 28 29 30 29 28 28 29 29 28 25 24 24 23 22 21 21 21 20 20 20 20 21 21 21 22 23 24 25 25
18 18 17 17 18 18 19 19 19 20 22 26 27 28 29 30 31 30 30 29 29 28 27 25 25 24 23 22 22 22 22 22 21 21 22 21 20 21 21 22 24 24
17 18 18 18 17 17 19 21 21 20 21 24 26 27 28 28 30 31 31 30 28 26 27 27 26 25 25 24 24 24 24 24 23 23 23 23 21 21 21 22 23 23
16 17 18 19 18 16 17 20 21 20 19 21 23 25 26 26 29 30 31 31 29 26 26 27 27 26 25 25 25 25 25 25 24 24 24 24 23 22 22 23 23 23
17 17 17 18 19 17 16 17 19 19 17 18 19 20 22 23 26 29 30 31 30 27 26 27 27 27 26 25 26 26 26 26 26 26 25 25 24 24 24 24 24 23
17 17 17 18 19 19 17 15 17 18 17 16 16 17 17 18 22 25 28 29 29 29 27 27 28 28 27 27 28 28 28 28 28 28 28 28 27 27 27 26 26 25
18 18 18 18 18 19 19 17 16 16 16 15 16 17 16 16 18 21 24 27 29 30 29 28 29 30 29 29 29 29 31 32 32 32 31 31 31 30 29 28 28 27
18 18 18 18 19 19 19 18 16 16 16 16 16 14 14 14 16 20 23 25 28 30 30 30 30 32 32 32 30 30 31 33 34 33 33 32 31 31 31 30 29 28
19 19 19 19 19 19 19 18 17 16 15 16 16 15 14 14 15 19 21 23 25 28 30 30 30 32 34 34 33 32 31 32 33 33 33 33 32 31 31 30 30 29
20 20 20 19 19 19 18 18 16 16 16 15 15 18 20 19 18 19 20 21 23 25 27 28 29 31 33 34 35 34 33 32 32 32 33 33 32 32 31 30 30 30
20 20 20 20 19 19 18 17 16 15 15 15 13 15 19 20 20 21 21 21 22 23 24 26 27 28 30 32 34 35 35 34 32 32 32 32 32 31 31 31 30 30
20 21 21 20 19 19 18 17 16 15 14 13 13 13 14 16 17 19 21 22 22 22 22 23 25 26 27 29 31 33 35 34 32 30 29 29 29 29 30 30 30 30
21 21 21 20 19 19 18 18 18 16 14 14 13 12 11 13 14 17 20 22 22 21 21 22 23 24 25 27 29 31 33 32 31 29 28 28 28 28 28 29 29 29
21 21 21 20 19 19 18 18 19 18 17 15 14 13 12 12 13 15 18 20 22 22 22 22 22 23 23 24 26 29 30 30 30 29 29 28 27 27 27 27 27 27
20 21 21 20 19 18 18 18 18 19 18 16 15 14 14 13 14 15 17 19 21 23 23 23 22 22 21 22 23 25 27 29 30 30 30 29 29 28 27 26 26 27
20 21 22 21 20 18 17 17 17 17 17 16 16 15 15 15 15 15 16 17 19 21 23 23 23 22 21 22 23 23 24 26 28 30 30 30 30 30 29 28 28 28
20 21 21 21 20 19 18 17 16 17 17 16 16 16 16 17 16 15 15 16 18 19 21 22 22 21 21 22 23 23 24 25 27 29 30 29 29 29 30 30 30 29
20 21 21 21 20 20 18 17 16 17 17 17 17 16 16 17 17 16 16 16 17 18 19 21 21 20 21 21 22 23 24 26 27 29 29 29 29 28 29 30 31 30
20 21 21 20 20 20 19 17 17 17 17 18 18 18 17 17 17 16 16 16 17 17 18 20 20 20 20 22 22 23 23 24 26 28 29 30 29 29 29 30 30 30
20 21 21 20 20 20 19 18 17 18 18 18 19 20 19 18 17 16 16 16 17 18 19 19 19 18 19 21 22 22 22 23 24 26 27 29 30 29 30 30 30 29
19 20 20 20 20 20 19 18 17 18 19 19 20 21 21 19 17 16 16 17 16 17 18 19 18 18 18 19 20 20 22 23 24 25 27 29 30 30 30 30 30 30
19 19 20 20 20 20 19 19 18 18 19 20 21 21 22 21 18 16 16 16 16 16 18 18 18 17 17 17 18 19 21 22 23 24 26 27 29 30 30 31 31 31
19 19 20 20 21 21 20 19 19 19 20 21 22 22 22 22 20 16 15 16 17 18 18 17 18 17 16 16 17 18 19 20 20 21 22 23 24 26 28 29 30 30
Wind_Direction
274 275 277 276 273 271 269 267 264 259 254 251 250 249 247 247 243 234 228 223 222 227 231 231 231 232 234 234 233 232 232 233 234 235 235 236 236 237 237 239 244 250
277 275 279 282 280 274 269 266 265 263 258 252 248 247 247 246 242 234 228 226 226 228 230 230 228 227 230 233 236 235 233 232 233 233 236 239 240 240 239 238 242 246
303 293 288 287 287 285 279 272 266 264 261 255 248 245 244 243 240 235 231 229 228 229 229 229 227 224 225 229 233 236 233 230 231 232 234 239 242 244 243 241 241 243
324 316 303 291 285 282 282 279 272 267 264 259 251 245 242 241 239 236 234 232 230 229 230 230 228 224 223 224 227 232 232 228 226 227 230 235 239 244 246 245 243 242
329 327 321 308 293 282 278 277 275 273 269 263 256 249 243 240 239 236 234 231 229 230 232 232 230 229 227 225 225 227 229 229 225 224 227 231 234 239 244 246 246 244
325 324 324 320 309 292 281 276 272 272 271 267 260 251 244 241 237 236 235 232 228 228 232 234 232 231 232 231 230 229 228 229 228 227 230 231 232 235 238 241 244 244
325 323 321 321 318 305 288 280 275 272 271 271 265 251 244 241 237 236 237 237 236 232 231 233 233 233 235 236 236 236 234 232 231 231 233 234 233 234 234 236 240 242
328 325 322 320 320 314 299 284 280 278 273 272 270 255 244 239 236 236 236 239 245 244 234 232 235 235 237 239 241 244 243 241 239 237 237 238 239 238 237 236 237 240
328 328 326 322 321 320 311 292 281 280 278 273 270 259 246 236 234 235 234 236 246 249 241 236 237 238 240 243 246 248 250 250 249 247 246 247 247 247 245 241 240 239
326 328 330 327 324 322 318 306 288 279 276 272 269 261 248 237 235 236 236 237 242 246 244 240 239 240 242 246 249 252 255 257 258 257 255 254 254 253 251 248 245 243
323 325 329 329 327 324 322 317 304 289 276 266 265 266 259 248 241 238 238 240 242 243 243 242 242 242 243 245 248 252 257 260 262 262 261 260 258 256 254 252 249 247
321 322 325 327 327 326 325 322 316 309 294 273 261 258 260 259 250 241 238 240 241 241 242 243 244 244 244 245 246 249 253 258 261 262 263 263 260 257 255 254 252 250
318 319 320 323 325 325 325 324 320 315 309 296 274 256 253 254 252 249 245 243 243 243 243 245 247 247 247 246 246 247 249 253 257 260 262 262 261 259 257 256 255 253
317 318 318 318 320 322 322 322 320 314 309 308 293 268 258 256 254 253 251 247 245 246 248 250 251 251 250 248 247 247 248 250 254 258 260 261 261 260 258 257 258 256
314 316 316 315 315 318 318 317 317 313 303 298 292 279 269 266 262 259 255 251 249 248 250 252 253 253 253 250 247 246 247 250 254 257 259 259 259 259 258 257 256 256
310 312 313 312 312 314 316 316 316 313 303 291 285 281 274 270 266 262 257 254 253 251 249 251 253 255 255 253 250 247 247 250 253 256 258 259 259 259 258 256 254 254
309 309 309 310 310 311 314 316 316 316 312 298 284 278 276 273 268 264 259 257 256 255 252 251 252 254 257 257 255 252 251 251 251 253 256 258 259 259 258 256 254 254
307 305 306 307 308 309 310 313 316 317 316 308 294 283 277 272 268 265 262 259 257 256 255 253 251 251 254 257 258 255 254 253 252 253 254 255 256 258 258 257 256 256
305 303 305 306 307 307 307 309 313 315 315 312 303 292 281 273 267 264 261 258 256 255 255 253 251 250 251 254 256 255 254 253 253 253 254 254 254 255 256 256 257 259
304 302 304 306 306 306 305 305 309 311 312 310 303 296 287 280 272 264 259 256 254 254 254 252 249 248 248 249 251 251 250 249 250 250 251 251 253 254 255 255 256 256
305 303 304 304 305 305 304 303 304 306 308 307 302 297 291 285 278 269 262 258 255 254 253 252 249 247 247 247 247 245 244 244 245 247 248 249 250 251 252 253 254 254
307 305 303 302 302 303 303 302 300 302 306 306 303 299 294 290 283 274 267 265 261 256 253 253 252 250 248 247 245 243 241 241 243 245 248 249 249 249 250 251 252 253
308 307 305 302 300 300 301 300 297 298 303 304 303 302 300 295 287 277 270 268 264 259 256 256 254 253 251 248 247 245 242 240 241 243 245 247 248 247 248 250 251 251
308 307 305 302 299 298 298 297 294 295 300 302 302 302 302 299 292 280 272 268 264 260 259 259 256 253 253 252 249 248 246 243 242 242 243 245 245 245 245 246 248 249
309 307 304 302 298 295 294 293 291 292 296 299 300 300 299 298 292 283 275 271 265 259 259 261 260 255 252 251 248 246 246 247 247 246 246 247 248 248 248 248 248 248
307 304 303 301 296 292 290 289 289 290 293 296 298 298 297 295 290 283 276 271 267 263 261 262 263 258 251 248 246 244 243 245 246 247 248 250 251 252 253 252 251 250